Time,TemperatureF,DewpointF,PressureIn,WindDirection,WindDirectionDegrees,WindSpeedMPH,WindSpeedGustMPH,Humidity,HourlyPrecipIn,Conditions,Clouds,dailyrainin,SolarRadiationWatts/m^2,SoftwareType,DateUTC
2013-04-08 00:01:00,36.7,35.0,29.94,South,185,0.0,2.0,92,0.00,,,0.00,0,weatherlink.com 1.10,2013-04-08 05:01:00,
2013-04-08 00:16:00,36.7,35.0,29.93,South,184,0.0,2.0,93,0.00,,,0.00,0,weatherlink.com 1.10,2013-04-08 05:16:00,
2013-04-08 00:31:00,36.7,35.0,29.92,SSE,164,0.0,2.0,92,0.00,,,0.00,0,weatherlink.com 1.10,2013-04-08 05:31:00,
2013-04-08 00:47:00,36.6,35.0,29.92,SSE,164,0.0,2.0,93,0.00,,,0.00,0,weatherlink.com 1.10,2013-04-08 05:47:00,
2013-04-08 01:02:00,36.6,35.0,29.91,SSE,164,0.0,2.0,92,0.00,,,0.00,0,weatherlink.com 1.10,2013-04-08 06:02:00,
2013-04-08 01:17:00,36.8,35.0,29.91,SE,146,0.0,2.0,92,0.00,,,0.00,0,weatherlink.com 1.10,2013-04-08 06:17:00,
2013-04-08 01:32:00,37.0,35.0,29.91,South,190,0.0,4.0,91,0.00,,,0.00,0,weatherlink.com 1.10,2013-04-08 06:32:00,
2013-04-08 01:47:00,37.2,35.0,29.90,SE,130,0.0,2.0,90,0.00,,,0.00,0,weatherlink.com 1.10,2013-04-08 06:47:00,
2013-04-08 02:02:00,37.3,35.0,29.90,South,183,0.0,3.0,90,0.00,,,0.00,0,weatherlink.com 1.10,2013-04-08 07:02:00,
2013-04-08 02:17:00,37.5,35.0,29.90,SSE,167,3.0,3.0,90,0.00,,,0.00,0,weatherlink.com 1.10,2013-04-08 07:17:00,
2013-04-08 02:32:00,37.3,35.0,29.89,SSE,149,0.0,2.0,90,0.00,,,0.00,0,weatherlink.com 1.10,2013-04-08 07:32:00,
2013-04-08 02:47:00,37.4,35.0,29.89,SSE,155,1.0,3.0,90,0.00,,,0.00,0,weatherlink.com 1.10,2013-04-08 07:47:00,
2013-04-08 03:02:00,37.5,35.0,29.87,SSE,166,0.0,2.0,91,0.00,,,0.00,0,weatherlink.com 1.10,2013-04-08 08:02:00,
2013-04-08 03:17:00,37.6,35.0,29.86,SSW,196,0.0,2.0,91,0.00,,,0.00,0,weatherlink.com 1.10,2013-04-08 08:17:00,
2013-04-08 03:32:00,37.6,36.0,29.86,South,178,0.0,3.0,92,0.00,,,0.00,0,weatherlink.com 1.10,2013-04-08 08:32:00,
2013-04-08 03:47:00,37.7,36.0,29.86,SSE,161,1.0,2.0,92,0.00,,,0.00,0,weatherlink.com 1.10,2013-04-08 08:47:00,
2013-04-08 04:02:00,38.0,36.0,29.85,South,173,1.0,3.0,92,0.00,,,0.00,0,weatherlink.com 1.10,2013-04-08 09:02:00,
2013-04-08 04:17:00,38.3,36.0,29.84,South,173,1.0,3.0,92,0.00,,,0.00,0,weatherlink.com 1.10,2013-04-08 09:17:00,
2013-04-08 04:32:00,38.3,36.0,29.83,South,170,3.0,3.0,92,0.00,,,0.00,0,weatherlink.com 1.10,2013-04-08 09:32:00,
2013-04-08 04:47:00,38.5,36.0,29.82,South,189,1.0,3.0,92,0.00,,,0.00,0,weatherlink.com 1.10,2013-04-08 09:47:00,
2013-04-08 05:02:00,38.8,36.0,29.81,South,184,2.0,4.0,91,0.00,,,0.00,0,weatherlink.com 1.10,2013-04-08 10:02:00,
2013-04-08 05:17:00,38.9,37.0,29.80,South,183,1.0,4.0,91,0.00,,,0.00,0,weatherlink.com 1.10,2013-04-08 10:17:00,
2013-04-08 05:32:00,39.1,37.0,29.80,South,184,3.0,3.0,91,0.00,,,0.00,0,weatherlink.com 1.10,2013-04-08 10:32:00,
2013-04-08 05:47:00,39.2,37.0,29.79,South,187,2.0,4.0,90,0.00,,,0.00,0,weatherlink.com 1.10,2013-04-08 10:47:00,
2013-04-08 06:02:00,39.6,37.0,29.78,SSE,161,1.0,4.0,90,0.00,,,0.00,0,weatherlink.com 1.10,2013-04-08 11:02:00,
2013-04-08 06:17:00,39.6,37.0,29.76,South,170,2.0,3.0,90,0.00,,,0.00,0,weatherlink.com 1.10,2013-04-08 11:17:00,
2013-04-08 06:32:00,39.6,37.0,29.75,South,182,2.0,3.0,90,0.00,,,0.00,0,weatherlink.com 1.10,2013-04-08 11:32:00,
2013-04-08 06:47:00,39.7,37.0,29.75,South,182,1.0,5.0,90,0.00,,,0.00,5,weatherlink.com 1.10,2013-04-08 11:47:00,
2013-04-08 07:02:00,40.0,37.0,29.75,SSW,193,0.0,4.0,89,0.00,,,0.00,0,weatherlink.com 1.10,2013-04-08 12:02:00,
2013-04-08 07:17:00,40.3,37.0,29.74,South,184,1.0,4.0,89,0.00,,,0.00,5,weatherlink.com 1.10,2013-04-08 12:17:00,
2013-04-08 07:32:00,39.9,38.0,29.72,SSW,207,3.0,3.0,91,0.01,,,0.01,9,weatherlink.com 1.10,2013-04-08 12:32:00,
2013-04-08 07:48:00,39.8,38.0,29.72,SSE,168,1.0,4.0,92,0.03,,,0.03,7,weatherlink.com 1.10,2013-04-08 12:48:00,
2013-04-08 08:03:00,39.7,38.0,29.69,NNE,24,1.0,3.0,93,0.06,,,0.06,9,weatherlink.com 1.10,2013-04-08 13:03:00,
2013-04-08 08:18:00,39.6,38.0,29.71,South,182,0.0,6.0,93,0.10,,,0.10,0,weatherlink.com 1.10,2013-04-08 13:18:00,
2013-04-08 08:33:00,39.7,38.0,29.69,SSE,165,0.0,4.0,94,0.12,,,0.14,12,weatherlink.com 1.10,2013-04-08 13:33:00,
2013-04-08 08:48:00,39.8,38.0,29.70,West,274,0.0,3.0,94,0.18,,,0.21,5,weatherlink.com 1.10,2013-04-08 13:48:00,
2013-04-08 09:03:00,40.1,39.0,29.67,SSW,194,3.0,9.0,95,0.22,,,0.29,16,weatherlink.com 1.10,2013-04-08 14:03:00,
2013-04-08 09:18:00,40.1,39.0,29.65,SSW,205,1.0,5.0,95,0.27,,,0.37,12,weatherlink.com 1.10,2013-04-08 14:18:00,
2013-04-08 09:33:00,40.3,39.0,29.63,SW,214,2.0,5.0,95,0.30,,,0.44,18,weatherlink.com 1.10,2013-04-08 14:33:00,
2013-04-08 09:48:00,40.0,39.0,29.62,ENE,61,0.0,4.0,95,0.26,,,0.47,30,weatherlink.com 1.10,2013-04-08 14:48:00,
2013-04-08 10:03:00,40.0,39.0,29.60,SSW,192,2.0,3.0,95,0.19,,,0.48,30,weatherlink.com 1.10,2013-04-08 15:03:00,
2013-04-08 10:18:00,40.2,39.0,29.59,East,80,0.0,4.0,96,0.10,,,0.48,37,weatherlink.com 1.10,2013-04-08 15:18:00,
2013-04-08 10:33:00,42.3,42.0,29.58,SSW,196,3.0,4.0,97,0.04,,,0.48,62,weatherlink.com 1.10,2013-04-08 15:33:00,
2013-04-08 10:48:00,42.8,42.0,29.58,SSW,194,2.0,3.0,96,0.02,,,0.49,51,weatherlink.com 1.10,2013-04-08 15:48:00,
2013-04-08 11:03:00,43.0,42.0,29.58,East,92,1.0,4.0,96,0.04,,,0.52,51,weatherlink.com 1.10,2013-04-08 16:03:00,
2013-04-08 11:18:00,43.0,42.0,29.57,NNE,19,2.0,4.0,96,0.04,,,0.52,63,weatherlink.com 1.10,2013-04-08 16:18:00,
2013-04-08 11:33:00,43.2,42.0,29.56,NNW,348,2.0,3.0,96,0.04,,,0.52,105,weatherlink.com 1.10,2013-04-08 16:33:00,
2013-04-08 11:48:00,42.2,41.0,29.58,NNW,334,4.0,6.0,96,0.03,,,0.52,104,weatherlink.com 1.10,2013-04-08 16:48:00,
2013-04-08 12:03:00,41.0,40.0,29.59,North,9,3.0,8.0,96,0.00,,,0.52,179,weatherlink.com 1.10,2013-04-08 17:03:00,
2013-04-08 12:18:00,41.2,40.0,29.59,NNE,14,6.0,9.0,97,0.00,,,0.52,165,weatherlink.com 1.10,2013-04-08 17:18:00,
2013-04-08 12:33:00,41.5,41.0,29.62,WNW,302,5.0,15.0,97,0.00,,,0.52,156,weatherlink.com 1.10,2013-04-08 17:33:00,
2013-04-08 12:48:00,40.8,40.0,29.64,ENE,57,4.0,12.0,96,0.00,,,0.52,163,weatherlink.com 1.10,2013-04-08 17:48:00,
2013-04-08 13:03:00,41.4,41.0,29.67,NNW,341,4.0,10.0,97,0.00,,,0.52,132,weatherlink.com 1.10,2013-04-08 18:03:00,
2013-04-08 13:18:00,41.9,41.0,29.69,North,350,5.0,12.0,97,0.00,,,0.52,148,weatherlink.com 1.10,2013-04-08 18:18:00,
2013-04-08 13:33:00,42.4,42.0,29.71,NW,311,3.0,9.0,97,0.00,,,0.52,130,weatherlink.com 1.10,2013-04-08 18:33:00,
2013-04-08 13:48:00,42.9,42.0,29.73,WNW,303,5.0,15.0,96,0.00,,,0.52,134,weatherlink.com 1.10,2013-04-08 18:48:00,
2013-04-08 14:03:00,42.6,42.0,29.75,WNW,285,7.0,13.0,96,0.00,,,0.52,135,weatherlink.com 1.10,2013-04-08 19:03:00,
2013-04-08 14:18:00,42.8,42.0,29.76,NW,311,4.0,8.0,95,0.00,,,0.52,171,weatherlink.com 1.10,2013-04-08 19:18:00,
2013-04-08 14:33:00,43.3,42.0,29.76,NW,311,4.0,11.0,95,0.00,,,0.52,190,weatherlink.com 1.10,2013-04-08 19:33:00,
2013-04-08 14:48:00,43.8,42.0,29.77,NW,326,5.0,10.0,94,0.00,,,0.52,171,weatherlink.com 1.10,2013-04-08 19:48:00,
2013-04-08 15:19:00,45.6,43.0,29.77,NW,324,2.0,7.0,91,0.00,,,0.52,392,weatherlink.com 1.10,2013-04-08 20:19:00,
2013-04-08 15:48:00,47.0,44.0,29.79,NW,322,5.0,7.0,89,0.00,,,0.52,311,weatherlink.com 1.10,2013-04-08 20:48:00,
2013-04-08 16:04:00,47.4,44.0,29.80,NNW,347,3.0,8.0,87,0.00,,,0.52,248,weatherlink.com 1.10,2013-04-08 21:04:00,
2013-04-08 16:19:00,47.7,44.0,29.80,NNW,346,3.0,5.0,87,0.00,,,0.52,213,weatherlink.com 1.10,2013-04-08 21:19:00,
2013-04-08 16:34:00,47.6,44.0,29.82,NE,36,1.0,6.0,86,0.00,,,0.52,169,weatherlink.com 1.10,2013-04-08 21:34:00,
2013-04-08 16:49:00,44.2,41.0,29.82,ENE,57,0.0,3.0,88,0.00,,,0.52,213,weatherlink.com 1.10,2013-04-08 21:49:00,
2013-04-08 17:04:00,44.0,41.0,29.84,NE,49,0.0,3.0,88,0.00,,,0.52,121,weatherlink.com 1.10,2013-04-08 22:04:00,
2013-04-08 17:19:00,44.5,42.0,29.84,NNE,28,1.0,4.0,90,0.00,,,0.52,156,weatherlink.com 1.10,2013-04-08 22:19:00,
2013-04-08 17:34:00,43.9,41.0,29.86,NNE,15,1.0,5.0,89,0.00,,,0.52,118,weatherlink.com 1.10,2013-04-08 22:34:00,
2013-04-08 17:49:00,42.4,39.0,29.87,NE,42,0.0,5.0,89,0.00,,,0.52,114,weatherlink.com 1.10,2013-04-08 22:49:00,
2013-04-08 18:04:00,41.4,39.0,29.87,NE,51,1.0,5.0,91,0.00,,,0.52,86,weatherlink.com 1.10,2013-04-08 23:04:00,
2013-04-08 18:19:00,41.2,39.0,29.88,ENE,63,2.0,4.0,91,0.00,,,0.52,46,weatherlink.com 1.10,2013-04-08 23:19:00,
2013-04-08 18:49:00,41.2,39.0,29.89,NNE,33,1.0,4.0,92,0.00,,,0.52,30,weatherlink.com 1.10,2013-04-08 23:49:00,
2013-04-08 19:04:00,40.8,39.0,29.90,NE,34,2.0,4.0,92,0.00,,,0.52,16,weatherlink.com 1.10,2013-04-09 00:04:00,
2013-04-08 19:34:00,40.2,38.0,29.92,ENE,59,0.0,1.0,93,0.00,,,0.52,0,weatherlink.com 1.10,2013-04-09 00:34:00,
2013-04-08 19:49:00,39.9,38.0,29.92,South,184,0.0,1.0,93,0.00,,,0.52,0,weatherlink.com 1.10,2013-04-09 00:49:00,
2013-04-08 20:04:00,39.9,38.0,29.93,South,184,1.0,2.0,93,0.00,,,0.52,0,weatherlink.com 1.10,2013-04-09 01:04:00,
2013-04-08 20:19:00,39.8,38.0,29.94,SSE,148,2.0,3.0,94,0.00,,,0.52,0,weatherlink.com 1.10,2013-04-09 01:19:00,
2013-04-08 21:36:00,38.5,37.0,29.96,NE,45,0.0,2.0,95,0.00,,,0.52,0,weatherlink.com 1.10,2013-04-09 02:36:00,
2013-04-08 21:49:00,38.4,37.0,29.96,NE,45,0.0,2.0,95,0.00,,,0.52,0,weatherlink.com 1.10,2013-04-09 02:49:00,
2013-04-08 22:04:00,38.3,37.0,29.97,NE,45,0.0,2.0,95,0.00,,,0.52,0,weatherlink.com 1.10,2013-04-09 03:04:00,
2013-04-08 22:19:00,38.2,37.0,29.97,NE,44,1.0,3.0,95,0.00,,,0.52,0,weatherlink.com 1.10,2013-04-09 03:19:00,
2013-04-08 22:49:00,38.5,37.0,29.98,North,360,4.0,5.0,95,0.00,,,0.52,0,weatherlink.com 1.10,2013-04-09 03:49:00,
2013-04-08 23:19:00,38.4,37.0,29.99,NE,52,3.0,4.0,95,0.00,,,0.52,0,weatherlink.com 1.10,2013-04-09 04:19:00,
2013-04-08 23:34:00,38.3,37.0,29.99,NE,42,0.0,4.0,95,0.00,,,0.52,0,weatherlink.com 1.10,2013-04-09 04:34:00,
2013-04-08 23:49:00,38.3,37.0,30.00,NNE,30,2.0,3.0,95,0.00,,,0.52,0,weatherlink.com 1.10,2013-04-09 04:49:00,